Погода Александров Гай

Погода Александров Гай : погода сейчас, прогноз погоды и архив. Всё, что Вы хотите узнать о погоде Александров Гай!

Хотите узнать прогноз погоды Александров Гай? Тогда Вам сюда: Погода Александров Гай

Поиск расширенной информации на нашем сайте:

Другие новости

Новости СМИ2

Главная страница сайта

Новости сайта

03.07.2017

Напоминаем, что на нашем специализированном сайте Метеоцентр.Азия вы можете получить высокодетализированные автоматические прогнозы погоды по пунктам России, СНГ и мира в авиационном формате (включающие направление и скорость ветра, видимость, явления погоды, количество и форму облачности, нижнюю и верхнюю границу облачности).


Погода Александров Гай - сегодня

Время (UTC), дата Ветер
(°,м/с) 
Видим.   Явления Облачность Т
(°С)
Тd
(°С)
f(%) Тe
(°С)
Pmin
(гПа)
dP
(гПа)
Po
(мм)
O2
(г/м3)
Тmin Tmax R s Состояние
почвы
12 18.10.18 070 (В) 10 км    ясно 
+15.9 +0.3 35 +17  1025.7  -0.7  767  292           
15 18.10.18 100 (В) 10 км    ясно 
+7 +0.3 62 +8  1025.8  767  301    +16.5       
18 18.10.18 140 (ЮВ) 10 км    ясно 
+3.2 +0.6 83 +4  1025.6  -0.2  767  305           
21 18.10.18 230 (ЮЗ) 10 км    ясно 
+2.4 -1.2 77 +3  1026  0.3  767  307           
00 19.10.18 230 (ЮЗ) 10 км    ясно 
+1 -1.7 82 1025.7  -0.3  767  308           
06 19.10.18 230 (ЮЗ) 10 км    ясно 
+10.9 +0.6 49 +11  1025.9  0.4  767  297  -0.3         
09 19.10.18 250 (З) 10 км    3/0 верхняя 
[Ci sp]
+16.6 +1.3 36 +17  1024.8  -1  766  291           
12 19.10.18 230 (ЮЗ) 10 км    1/0 верхняя 
[Ci sp]
+17.6 +0.3 31 +18  1023.5  -1.3  765  290           
18 19.10.18 220 (ЮЗ) 10 км    ясно 
+4.8 -3 57 +4  1022.4  -0.5  764  303           
21 19.10.18 220 (ЮЗ) 10 км    ясно 
+4 -3.4 58 +3  1021.7  -0.7  764  304           
00 20.10.18 200 (Ю) 10 км    ясно 
+1.6 -3.7 68 +1  1021  -0.7  763  306           
03 20.10.18 200 (Ю) 10 км    3/0 верхняя 
[Ci fib]
+0 -4 74 -1  1020.3  -0.8  763  308  -0        сухая 
06 20.10.18 210 (ЮЗ) 10 км    1/0 верхняя 
[Ci fib]
+9.7 +1.3 56 +9  1019.6  -0.5  762  297  -0.2         
09 20.10.18 230 (ЮЗ) 10 км    1/0 верхняя 
[Ci sp]
+17.7 +8.6 55 +18  1018.6  -0.9  762  287           
18 20.10.18 250 (З) 10 км    3/0 средняя, верхняя 
[Ac trans|Ci fib]
+8 +7.3 95 +8  1017.8  -0.1  761  297           
21 20.10.18 250 (З) 10 км    3/0 средняя 
[Ac trans]
+6.1 +5.1 93 +6  1018.2  0.4  761  299           
00 21.10.18 300 (СЗ) 10 км    4/0 верхняя 
[Ci sp]
+7.8 +6.6 92 +9  1018  -0.2  761  297           
03 21.10.18 020 (С) 10 км    10/10 700 м 
[Sc]
+8.4 +7.7 95 +8  1018.9  0.9  762  297  +6.1        сухая 
06 21.10.18 090 (В) 10 км    10/10 800 м 
[Sc]
+9.6 +6.4 80 +10  1020.3  1.4  763  296           
09 21.10.18 130 (ЮВ) 10 км    8/0 средняя, верхняя 
[Ac As|Ci sp]
+14.4 +7.1 61 +15  1020.9  0.6  763  291           
15 21.10.18 070 (В) 10 км    10/10 660 м 
[Sc]
+12.3 +3.6 55 +13  1022.4  0.9  765  294    +16.4       
18 21.10.18 070 (В) 10 км    10/0 средняя 
[As op]
+11.3 +2.2 53 +11  1023.4  765  296           
21 21.10.18 080 (В) 10 км    9/9 840 м 
[Sc]
+9.5 +1.4 57 +10  1024.2  0.8  766  298           
03 22.10.18 080 (В) 10 км    9/9 870 м 
[Sc]
+6 +0.6 68 +5  1025.3  0.7  767  302  +6        сухая 
06 22.10.18 080 (В) 10 км    8/0 средняя, верхняя 
[Ac As|Ci fib]
+8.8 +1.2 59 +8  1026.4  767  299  +5.3         
Время (UTC), дата Ветер
(°,м/с) 
Видим.   Явления Облачность Т
(°С)
Тd
(°С)
f(%) Тe
(°С)
Pmin
(гПа)
dP
(гПа)
Po
(мм)
O2
(г/м3)
Тmin Tmax R s Состояние
почвы

Для получения пояснительной информации подведите курсор к названию столбца.

ПОГОДА Александров Гай - архив

Всё, что Вы хотите узнать о погоде Александров Гай - удобно и подробно!

Выберите нужную дату (начиная с 1 января 2015* года) и нажмите кнопку "Найти".
Будут отображены архивные сводки погоды по пункту Александров Гай, начиная с указанной даты.


Отображать данные в формате CSV (для использования в таблицах Excel)


Внимание! Наш архив погоды предназначен исключительно для личного некоммерческого использования в познавательных целях. Если Вам необходимы официальные справки о состоянии погоды (для производственных, юридических, коммерческих и т.п. целей), обращайтесь в органы Росгидромета.

*Примечание: данная дата относится к архиву по метеостанциям СССР (Россия, СНГ, Балтия).
Архив по метеостанциям Зарубежной Европы и Азии (кроме Китая) хранится 10 дней, по другим регионам земного шара (Китай, Африка, Америка, Австралия, Океания) - 1 день.

Александров Гай - район местоположения метеостанции


Название, широта, долгота, высота метеостанции:
Александров Гай 50.2°ш. 48.6°д. 25 м над ур. моря [Российская Федерация]

Дополнительная информация

В oтличие oт бoльшинства пoгoдных сайтoв мы публикуем пoдрoбную метеoинфoрмацию в детальнoм прoфессиoнальнoм фoрмате.

Характеристики температуры и влажнoсти вoздуха измеряются на высoте 2 м в тени вдали oт зданий и деревьев.
Скoрoсть ветра измеряется на высoте 10 м (на урoвне рoста челoвека скoрoсть ветра ниже в 1.5-2 раза). Если метеoстанция нахoдится в гoрoде или в лесу, тo скoрoсть ветра занижена на 2-4 м/с пo сравнению с oткрытым местoм. Скoрoсть ветра над акватoриями крупных рек и oзёр, а также на вершинах хoлмoв на 2-5 м/с выше, чем в oбычных услoвиях.
Атмoсфернoе давление в разных тoчках местнoсти мoжет значительнo oтличаться oт давления на метеoстанции, в зависимoсти oт услoвий рельефа (при пoдъёме на 10 м давление пoнижается примернo на 1 мм рт.ст.).